Probability
0 0 0 0 0 0 0 0 0 0 0 0 0 0 0 0 0 0 0 0 0 0 0 0 0 0 0 0 0 0 0 0 0 0 0 0 0 0 0 0 0 0 0 0
0 0 0 0 0 0 0 0 0 0 0 0 0 0 0 0 0 0 0 0 0 0 0 0 0 0 0 0 0 0 0 0 0 0 0 0 0 0 0 0 0 0 0 0
0 0 0 0 0 0 0 0 0 0 0 0 0 0 0 0 0 0 0 0 0 0 0 0 0 0 0 0 0 0 0 0 0 0 0 0 0 0 0 0 0 0 0 0
0 0 0 0 0 0 0 0 0 0 0 0 0 0 0 0 0 0 0 0 0 0 0 0 0 0 0 0 0 0 0 0 0 0 0 0 0 0 0 0 0 0 0 0
0 0 0 0 0 0 0 0 0 0 0 0 0 0 0 0 0 0 0 0 0 0 0 0 0 0 0 0 0 0 0 0 0 0 0 0 0 0 0 0 0 0 0 0
0 0 0 0 0 0 0 0 0 0 0 0 0 0 0 0 0 0 0 0 0 0 0 0 0 0 0 0 0 0 0 0 0 0 0 0 0 0 0 0 0 0 0 0
0 0 0 0 0 0 0 0 0 0 0 0 0 0 0 0 0 0 0 0 0 0 0 0 0 0 0 0 0 0 0 0 0 0 0 0 0 0 0 0 0 0 0 0
0 0 0 0 0 0 0 0 0 0 0 0 0 0 0 0 0 0 0 0 0 0 0 0 0 0 0 0 0 0 0 0 0 0 0 0 0 0 0 0 0 0 0 0
0 0 0 0 0 0 0 0 0 0 0 0 0 0 0 0 0 0 0 0 0 0 0 0 0 0 0 0 0 0 0 0 0 0 0 0 0 0 0 0 0 0 0 0
0 0 0 0 0 0 0 0 0 0 0 0 0 0 0 0 0 0 0 0 0 0 0 0 0 0 0 0 0 0 0 0 0 0 0 0 0 0 0 0 0 0 0 0
0 0 0 0 0 0 0 0 0 0 0 0 0 0 0 0 0 0 0 0 0 0 0 0 0 0 0 0 0 0 0 0 0 0 0 0 0 0 0 0 0 0 0 0
0 0 0 0 0 0 0 0 0 0 0 0 0 0 0 0 0 0 0 0 0 0 0 0 0 0 0 0 0 0 0 0 0 0 0 0 0 0 0 0 0 0 0 0
0 0 0 0 0 0 0 0 0 0 0 0 0 0 0 0 0 0 0 0 0 0 0 0 0 0 0 0 0 0 0 0 0 0 0 0 0 0 0 0 0 0 0 0
0 0 0 0 0 0 0 0 0 0 0 0 0 0 0 0 0 0 0 0 0 0 0 0 0 0 0 0 0 0 0 0 0 0 0 0 0 0 0 0 0 0 0 0
0 0 0 0 0 0 0 0 0 0 0 0 0 0 0 0 0 0 0 0 0 0 0 0 0 0 0 0 0 0 0 0 0 0 0 0 0 0 0 0 0 0 0 0
0 0 0 0 0 0 0 0 0 0 0 0 0 0 0 0 0 0 0 0 0 0 0 0 0 0 0 0 0 0 0 0 0 0 0 0 0 0 0 0 0 0 0 0
0 0 0 0 0 0 0 0 0 0 0 0 0 0 0 0 0 0 0 0 0 0 0 0 0 0 0 0 0 0 0 0 0 0 0 0 0 0 0 0 0 0 0 0
0 0 0 0 0 0 0 0 0 0 0 0 0 0 0 0 0 0 0 0 0 0 0 0 0 0 0 0 0 0 0 0 0 0 0 0 0 0 0 0 0 0 0 0
0 0 0 0 0 0 0 0 0 0 0 0 0 0 0 0 0 0 0 0 0 0 0 0 0 0 0 0 0 0 0 0 0 0 0 0 0 0 0 0 0 0 0 0
0 0 0 0 0 0 0 0 0 0 0 0 0 0 0 0 0 0 0 0 0 0 0 0 0 0 0 0 0 0 0 0 0 0 0 0 0 0 0 0 0 0 0 0
0 0 0 0 0 0 0 0 0 0 0 0 0 0 0 0 0 0 0 0 0 0 0 0 0 0 0 0 0 0 0 0 0 0 0 0 0 0 0 0 0 0 0 0
0 0 0 0 0 0 0 0 0 0 0 0 0 0 0 0 0 0 0 0 0 0 0 0 0 0 0 0 0 0 0 0 0 0 0 0 0 0 0 0 0 0 0 0
0 0 0 0 0 0 0 0 0 0 0 0 0 0 0 0 0 0 0 0 0 0 0 0 0 0 0 0 0 0 0 0 0 0 0 0 0 0 0 0 0 0 0 0
0 0 0 0 0 0 0 0 0 0 0 0 0 0 0 0 0 0 0 0 0 0 0 0 0 0 0 0 0 0 0 0 0 0 0 0 0 0 0 0 0 0 0 0
0 0 0 0 0 0 0 0 0 0 0 0 0 0 0 0 0 0 0 0 0 0 0 0 0 0 0 0 0 0 0 0 0 0 0 0 0 0 0 0 0 0 0 0
0 0 0 0 0 0 0 0 0 0 0 0 0 0 0 0 0 0 0 0 0 0 0 0 0 0 0 0 0 0 0 0 0 0 0 0 0 0 0 0 0 0 0 0
0 0 0 0 0 0 0 0 0 0 0 0 0 0 0 0 0 0 0 0 0 0 0 0 0 0 0 0 0 0 0 0 0 0 0 0 0 0 0 0 0 0 0 0
Wind_Speed
6 4 3 6 7 8 10 10 10 10 9 12 7 5 4 3 3 2 2 2 1 2 2 1 1 1 1 1 1 1 2 2 3 2 2 2 2 3 3 3 3 3 3 3
4 4 4 8 10 10 11 9 11 10 13 9 6 3 3 3 3 3 3 3 2 2 2 2 2 2 2 1 1 1 2 2 1 1 1 1 2 2 2 2 2 2 3 3
5 3 3 10 12 13 9 9 9 12 13 5 3 3 4 3 3 4 4 3 3 3 3 2 2 2 2 2 1 1 1 1 1 1 2 2 1 2 2 3 2 3 3 3
2 1 9 9 3 8 8 7 9 9 8 6 5 4 3 3 3 4 4 3 3 2 2 2 1 1 1 0 0 0 1 1 1 2 2 1 2 2 3 2 3 3 3 4
3 5 11 9 4 6 7 7 8 10 10 7 3 3 3 2 2 3 3 3 2 2 1 1 0 0 0 0 0 1 2 2 2 2 3 2 3 3 3 3 3 3 3 3
4 5 9 7 2 3 4 5 4 6 8 5 1 2 5 3 2 2 2 2 1 1 1 0 1 0 1 1 1 3 3 3 3 3 3 4 4 3 2 3 3 3 3 3
6 7 11 7 1 4 5 6 1 2 3 2 4 6 4 3 3 2 2 2 1 1 1 1 1 0 1 2 3 4 3 2 2 3 3 3 3 2 2 2 2 3 4 4
6 7 12 2 5 6 6 1 1 0 1 3 5 5 4 4 3 3 2 2 2 1 2 2 1 1 2 4 4 2 2 2 3 3 2 2 2 2 2 2 3 3 3 4
11 10 4 4 5 3 1 1 1 1 2 2 3 5 5 4 3 3 2 2 2 2 2 2 1 1 3 4 2 2 2 3 3 2 2 2 2 2 2 2 3 3 3 4
6 8 5 3 3 2 1 2 3 2 3 2 4 5 5 4 3 3 3 3 2 2 2 3 3 3 3 3 2 2 3 3 2 2 2 2 2 2 3 3 3 3 4 4
7 6 3 4 4 5 4 3 4 4 3 3 4 5 4 4 4 3 3 2 2 2 3 4 4 4 3 3 2 2 3 2 2 2 2 2 3 3 4 4 4 5 4 4
9 6 5 5 3 2 3 4 5 4 4 3 3 5 4 4 4 3 3 3 3 3 4 4 4 4 4 3 2 3 3 3 2 2 2 2 3 3 5 5 6 7 7 5
7 4 4 5 3 2 2 4 4 4 4 4 3 3 4 4 3 3 3 3 4 4 5 4 4 4 4 3 3 3 4 4 3 3 3 3 3 3 4 4 6 7 8 8
4 3 4 4 4 4 3 3 2 2 3 3 3 3 3 3 3 4 4 5 4 4 4 4 4 5 4 3 3 4 4 4 3 3 3 3 3 4 3 3 4 4 6 8
6 6 7 5 3 2 2 2 2 3 3 3 3 3 3 4 5 5 5 4 3 3 4 4 5 5 4 3 3 4 4 3 3 3 3 3 3 3 3 4 4 4 3 4
6 5 4 4 5 4 3 2 3 5 4 4 4 4 4 4 4 4 4 3 3 4 5 4 5 5 3 3 3 3 4 4 3 3 3 3 3 3 4 4 4 4 4 4
5 5 5 5 6 6 5 4 5 5 4 5 5 5 4 3 3 4 4 3 4 5 5 4 5 4 3 3 3 3 3 3 4 3 3 3 3 4 4 4 4 5 4 4
6 7 6 5 5 5 5 5 4 4 5 5 4 4 3 3 4 5 5 4 4 5 4 4 4 3 3 3 3 3 3 3 3 3 3 3 3 3 4 4 4 5 4 4
4 4 4 4 4 3 4 4 4 4 4 3 3 4 4 4 4 4 4 3 4 5 5 4 6 4 4 4 3 2 2 3 3 3 3 4 4 3 4 4 4 4 4 4
2 2 2 2 2 2 3 3 3 3 3 2 2 3 4 4 3 3 3 4 4 4 5 5 4 4 4 4 3 2 3 3 3 3 3 3 4 4 4 4 4 4 4 4
2 2 2 2 2 2 2 3 2 3 3 2 2 3 4 4 3 3 3 5 4 3 4 4 3 3 3 3 3 2 3 3 3 3 3 3 3 4 4 4 4 4 4 4
2 2 2 2 2 2 2 2 2 2 3 2 2 3 3 4 4 3 3 4 4 5 4 3 3 4 4 4 2 2 3 3 3 3 3 3 3 4 4 4 4 4 4 4
2 2 2 2 2 2 2 2 2 2 2 3 3 3 4 4 3 3 5 4 3 5 4 4 5 6 5 3 2 2 3 3 3 3 3 3 3 4 4 4 4 4 4 4
2 2 2 1 1 1 2 3 2 2 2 3 3 3 3 3 3 3 4 5 6 6 5 5 6 6 5 2 2 3 3 3 3 3 3 3 3 3 4 4 4 4 4 5
2 1 1 1 1 1 2 2 2 2 2 2 3 3 3 3 3 4 4 5 6 6 5 5 6 5 3 3 3 3 3 3 3 3 3 3 3 4 4 4 4 4 4 5
2 2 1 1 1 2 1 1 2 2 2 3 4 3 3 2 3 3 3 4 5 5 5 4 4 3 3 3 3 3 3 3 3 3 3 3 4 4 4 4 5 5 5 5
2 1 1 2 2 1 1 1 2 2 2 3 4 4 3 3 3 3 4 4 4 4 4 4 4 3 3 3 3 3 3 3 3 3 3 3 4 4 4 5 5 5 5 5
Wind_Direction
253 261 227 235 233 208 208 213 219 244 252 269 278 276 278 293 302 319 328 320 283 272 279 288 288 269 247 239 224 172 170 193 220 216 201 193 199 205 206 207 211 212 212 215
274 253 248 261 245 222 229 232 238 258 269 262 269 278 288 293 295 289 282 273 274 279 281 269 262 263 266 249 227 178 188 219 225 187 175 194 205 201 200 209 217 208 214 217
260 302 334 265 230 206 213 216 206 229 246 264 277 285 272 274 281 271 271 270 266 256 247 251 256 248 244 251 246 176 209 241 227 207 207 214 206 198 208 213 209 212 222 226
231 43 242 246 194 186 199 229 217 239 262 264 248 265 260 254 260 276 284 284 280 269 265 275 275 287 291 355 65 230 258 263 256 224 227 222 213 225 230 223 218 224 229 230
176 233 269 284 238 178 192 248 227 236 259 273 275 307 286 274 253 253 266 269 260 256 259 277 286 304 121 150 285 263 272 272 265 233 221 215 223 235 236 229 230 232 235 235
180 209 241 253 236 184 145 268 251 224 248 267 155 269 276 326 325 304 312 316 312 336 17 2 325 92 164 219 240 254 260 263 260 240 226 227 232 235 239 234 236 236 241 239
204 227 257 260 259 131 173 242 275 215 247 237 213 230 275 325 325 316 318 333 1 13 332 304 332 138 214 241 249 262 275 274 260 243 235 237 243 244 242 239 241 240 248 250
181 215 250 226 135 178 214 255 35 268 238 233 252 275 296 309 311 322 335 350 359 344 321 338 6 209 247 253 270 294 282 262 256 247 235 225 228 244 242 231 238 247 253 261
195 215 237 165 182 205 164 247 279 280 278 249 262 278 293 302 309 314 316 327 340 326 315 329 334 277 258 277 300 298 275 262 263 257 242 227 215 224 228 227 234 245 246 254
236 254 243 231 252 272 265 254 274 276 283 266 259 273 286 297 309 317 318 318 329 328 312 307 309 298 281 294 295 266 257 262 262 248 253 248 229 219 218 220 229 239 243 249
242 258 287 264 238 252 266 266 273 279 273 263 266 277 281 289 296 299 303 308 306 286 281 289 300 298 300 297 276 261 259 261 257 243 237 242 239 233 231 228 224 230 237 237
228 221 213 250 256 262 257 267 268 276 288 289 264 273 285 282 285 291 293 298 294 285 283 290 296 296 302 297 261 247 255 255 247 242 237 235 244 265 257 254 256 251 252 250
238 243 226 251 280 286 267 274 277 265 261 278 286 272 278 284 292 295 293 289 280 278 280 286 288 290 296 294 267 245 248 251 251 244 239 237 237 244 266 271 259 256 257 258
244 252 262 260 262 278 276 284 297 301 294 288 294 295 288 288 293 289 284 283 286 287 285 283 280 281 293 289 269 257 252 248 246 245 242 239 238 241 242 247 262 267 264 261
240 229 236 256 272 290 296 309 312 298 303 302 300 293 290 286 283 285 292 300 300 293 289 289 284 287 300 286 272 265 256 249 245 248 245 243 243 243 244 243 250 265 279 272
239 236 237 244 256 267 275 274 266 276 286 291 291 285 284 281 284 292 297 293 282 283 284 284 283 288 290 279 275 270 263 260 251 245 243 240 237 237 240 244 247 251 253 258
217 237 235 240 250 258 256 253 256 265 278 278 280 287 293 294 294 292 293 287 275 278 280 279 283 290 281 269 263 264 266 265 249 241 238 235 235 236 238 241 246 251 255 255
218 229 228 230 240 249 259 261 260 263 265 272 285 286 280 274 277 287 295 304 302 299 293 289 287 289 281 273 267 265 260 260 254 247 245 241 242 242 242 245 249 254 265 263
237 241 247 246 240 232 246 257 263 265 271 276 276 275 275 272 273 283 299 299 295 293 298 300 305 312 292 283 287 267 263 263 261 256 249 246 244 240 240 243 247 251 255 256
268 268 255 263 265 233 240 257 269 276 281 274 274 281 285 286 286 286 285 276 268 273 292 296 292 286 284 280 292 277 262 257 257 257 252 247 247 247 243 245 248 251 253 255
271 277 271 260 268 265 252 255 259 275 290 285 264 270 279 291 293 285 282 285 292 300 298 293 290 289 287 285 276 271 263 259 257 254 253 253 254 253 251 249 249 251 252 255
278 271 269 270 260 274 285 281 278 283 297 301 292 283 289 298 304 296 273 268 293 307 304 293 291 293 297 295 279 268 264 260 259 257 252 250 250 255 257 257 258 258 258 258
296 287 288 290 278 277 305 317 300 280 279 283 285 285 282 284 291 288 292 294 301 303 303 292 297 303 306 299 283 273 268 262 259 257 255 253 252 254 258 260 263 262 264 265
308 309 311 320 338 330 315 315 313 295 283 284 284 282 281 291 296 274 272 294 300 300 297 294 302 308 314 301 285 276 270 264 261 260 261 261 259 258 259 261 266 268 268 266
306 311 332 352 341 299 287 302 319 320 318 311 308 303 290 273 271 290 297 298 303 306 301 302 307 310 305 288 280 274 270 264 262 261 258 261 262 262 263 264 266 269 269 267
307 299 295 288 285 291 296 300 303 308 316 314 313 309 302 296 288 292 299 300 302 302 299 296 295 296 293 287 281 278 277 275 272 266 262 263 264 265 268 270 271 270 270 270
328 326 331 333 330 321 310 300 290 292 291 289 298 304 309 310 309 307 305 304 305 303 301 301 301 299 295 292 288 284 281 277 272 270 268 267 267 268 269 269 271 271 271 270